RH
82 83 84 88 92 92 92 91 83 70 52 32 16 8 7 7 10 14 18 19 22 23 24 23 21 17 13 12 15 20 23 22 21 19 17 17 19 19 19 18 17 15 14 14 15 16 18 24 30 37 46 56 66 73 79 85 91 91 91 94 95 97 101
85 86 87 90 95 95 93 92 87 75 58 38 21 10 7 6 8 13 18 20 22 24 25 25 24 21 16 13 15 20 24 25 24 23 21 19 17 17 18 19 19 17 15 13 14 14 14 17 20 25 34 45 56 65 71 76 83 86 86 91 94 91 93
88 89 88 92 99 99 95 93 90 81 64 43 26 13 7 6 7 11 17 20 22 25 27 27 26 24 20 15 15 18 24 29 30 29 27 25 22 19 17 18 19 19 18 16 14 13 13 13 15 18 24 34 46 58 67 73 79 83 82 86 93 89 84
89 92 92 95 100 102 99 95 93 87 71 49 30 15 7 6 7 9 16 21 23 25 28 29 28 27 24 19 16 16 21 30 36 36 34 31 28 24 21 18 17 18 19 19 17 14 12 11 13 15 17 25 37 48 59 69 77 83 83 83 87 89 85
90 94 95 97 100 101 101 98 96 92 79 56 35 18 8 6 6 7 14 22 26 26 28 30 30 29 27 23 20 17 18 25 36 41 40 36 32 28 25 22 19 18 18 19 20 18 15 11 9 12 16 21 30 42 53 62 71 82 87 85 85 87 87
90 97 98 100 101 101 101 100 97 95 86 63 39 20 9 7 6 6 11 21 28 28 28 31 32 31 29 28 25 21 18 21 31 41 44 41 36 31 28 26 23 20 18 17 19 20 20 15 10 9 15 24 32 40 51 59 65 75 86 91 89 88 89
91 99 101 102 103 100 100 101 99 99 92 69 42 24 12 8 7 6 8 18 28 31 29 31 33 33 32 31 29 27 23 20 25 38 47 45 41 36 31 29 27 24 21 19 18 19 21 20 16 9 11 24 38 44 51 61 67 71 79 88 93 92 91
93 101 101 102 103 101 100 101 100 101 98 77 50 30 17 9 7 6 7 15 26 32 32 32 32 35 35 34 33 32 29 24 23 31 44 50 47 42 37 34 32 29 27 24 20 19 20 22 22 15 8 16 35 51 58 65 75 80 81 84 89 92 92
95 102 102 100 102 102 100 100 100 101 100 85 61 38 20 10 8 7 7 11 21 30 35 35 32 34 38 37 36 37 35 31 26 26 36 48 53 51 45 40 38 36 34 32 28 23 20 20 24 23 15 9 22 49 67 70 76 87 93 92 90 89 89
99 104 103 100 101 102 100 100 100 100 99 89 70 45 23 11 8 8 7 8 15 24 33 38 36 34 39 40 38 40 40 37 33 29 29 39 51 57 54 49 46 44 42 40 38 34 27 21 21 25 25 16 12 30 59 78 83 86 93 100 101 96 90
103 104 103 100 101 101 100 100 100 100 99 92 77 52 27 13 10 9 7 6 11 16 25 36 40 36 38 42 41 42 43 41 39 36 31 31 41 55 62 59 53 49 48 47 45 43 38 30 23 22 26 27 19 17 34 64 85 93 95 98 103 105 101
103 103 103 100 100 100 100 100 100 99 99 94 82 58 30 14 10 9 7 6 8 10 16 31 44 40 36 41 43 43 45 46 43 41 38 34 33 43 58 67 63 54 50 51 52 49 45 40 33 26 24 26 27 23 21 35 60 84 97 101 101 103 104
102 102 102 100 100 101 100 101 100 97 97 96 85 62 33 15 10 10 8 6 6 7 10 25 45 47 38 37 42 44 46 49 48 43 42 41 37 36 44 58 67 65 55 50 53 55 53 47 40 34 28 25 27 28 25 23 32 51 75 91 99 101 102
100 101 101 99 100 101 100 100 99 94 95 98 89 65 37 16 10 10 9 6 6 6 7 18 40 53 46 37 39 45 47 49 50 47 43 44 44 41 39 43 54 64 63 55 51 53 55 54 49 42 35 29 28 29 29 28 25 28 41 60 80 93 99
101 100 100 100 100 100 100 100 99 96 97 100 92 69 40 18 11 11 9 7 6 6 6 12 29 50 57 45 36 42 50 50 49 49 47 46 46 45 44 42 43 50 58 61 57 53 51 52 53 52 47 40 35 31 31 31 30 27 26 32 45 63 79
101 100 100 100 100 100 100 100 99 98 100 101 94 73 41 18 12 11 9 8 6 5 6 8 16 38 58 58 43 37 47 53 50 49 49 48 48 46 44 45 43 42 46 53 57 57 54 50 49 50 52 50 47 43 39 36 33 31 28 26 27 32 44
100 100 100 100 100 100 100 100 98 97 99 102 95 74 43 20 13 12 10 9 7 6 6 6 9 22 43 62 58 41 39 49 51 49 49 49 48 47 44 42 42 41 40 41 46 51 54 53 51 48 47 48 48 48 48 46 42 38 34 31 29 26 26
100 100 100 99 100 100 100 100 97 95 98 102 96 76 45 21 14 12 10 9 6 6 6 5 8 12 25 54 72 59 41 39 45 49 49 47 47 47 47 44 41 39 38 38 38 41 45 49 51 50 49 47 45 44 45 46 46 45 41 37 35 34 32
100 100 99 100 100 100 100 100 97 95 99 103 98 77 47 23 15 13 10 9 7 6 6 5 7 10 18 41 71 81 64 44 37 42 46 47 45 45 46 46 42 39 37 36 35 36 40 44 47 48 49 49 48 45 42 41 41 42 41 40 39 40 39
100 100 99 100 100 100 100 100 98 97 101 104 99 79 50 26 15 12 10 9 7 6 6 6 6 10 20 36 63 90 93 72 49 39 38 42 44 45 45 44 40 38 36 34 34 33 35 41 46 47 47 48 50 51 48 45 44 43 40 37 37 38 38
100 100 99 100 100 100 100 100 99 99 102 104 99 81 52 26 14 12 11 9 8 6 6 7 7 11 21 37 60 86 101 98 81 60 43 38 39 41 43 40 36 36 34 33 34 34 36 42 46 47 45 43 45 52 55 53 50 50 47 41 38 39 39
99 100 100 99 100 100 100 100 100 99 101 102 99 83 53 25 13 12 11 9 8 7 5 6 9 12 19 36 62 87 100 102 100 89 72 56 47 44 46 44 40 38 37 36 37 39 45 52 51 47 44 40 37 43 53 58 56 54 54 50 44 43 44
99 100 100 99 100 100 100 101 100 99 100 102 100 83 52 24 13 12 12 10 8 7 6 6 8 12 18 33 62 92 103 101 100 100 95 86 76 72 71 67 58 51 48 47 44 47 58 63 57 48 42 38 34 32 41 56 62 58 57 56 53 51 51
99 100 100 99 100 100 100 101 99 98 99 101 100 84 52 24 13 12 11 10 8 6 6 6 7 10 16 31 60 92 106 106 103 102 99 96 95 94 92 85 73 65 61 54 48 57 72 71 59 50 44 38 34 29 30 49 68 68 61 59 60 59 58
100 100 100 99 100 100 100 100 100 99 99 101 100 83 52 24 14 12 11 10 9 6 5 6 7 9 14 30 61 92 106 107 105 100 96 98 99 97 94 87 80 74 66 54 51 64 79 77 62 54 49 43 39 34 31 44 68 77 69 62 62 62 62
99 100 100 99 99 100 100 100 100 100 100 102 98 82 54 27 15 13 12 10 8 7 6 6 6 9 16 32 60 89 103 105 103 101 102 104 102 96 92 89 85 77 63 53 56 70 83 83 72 60 57 55 50 44 42 49 66 80 78 70 66 64 66
99 99 100 100 99 100 100 99 100 100 101 102 97 81 59 35 19 13 12 10 8 6 6 6 6 10 19 32 55 85 101 103 102 102 105 106 103 97 93 91 85 71 56 54 66 79 86 88 81 71 70 69 61 52 50 56 68 79 82 77 70 66 71
100 99 100 100 100 100 100 100 100 100 101 102 96 81 63 42 24 15 12 10 9 7 6 6 7 12 21 31 50 78 98 103 100 99 101 103 102 98 96 93 82 63 51 59 77 86 88 89 89 87 85 81 71 60 55 60 71 78 78 75 72 70 75
100 99 100 100 99 100 100 100 100 100 101 102 95 81 65 45 26 17 13 10 8 7 6 6 8 13 22 31 45 68 90 100 99 96 95 98 99 97 96 96 85 62 49 62 83 92 89 87 91 97 97 91 84 74 61 57 66 73 73 72 71 72 77
100 99 100 100 99 99 100 100 100 100 101 102 97 83 64 44 26 17 13 11 9 7 6 7 8 11 17 26 42 63 84 95 98 96 94 93 95 96 97 99 93 71 51 59 83 96 93 87 88 95 99 97 93 85 71 61 61 64 66 68 70 71 75
100 100 100 100 99 99 100 100 100 100 100 102 100 86 64 42 26 16 13 12 10 8 7 6 7 10 16 26 41 60 77 89 95 97 95 91 91 94 95 97 98 86 63 56 76 95 98 90 86 90 95 96 94 89 82 74 69 65 63 62 63 67 70
100 100 100 100 99 100 100 100 100 100 100 102 100 89 67 44 27 17 14 14 11 8 7 7 7 9 15 24 36 53 71 85 91 93 92 89 87 89 91 92 96 96 80 63 68 89 99 95 88 88 92 95 95 90 87 84 80 77 73 68 65 65 67
100 100 100 99 100 100 100 100 100 100 100 102 101 92 71 47 29 20 16 15 12 9 7 7 7 8 12 19 31 49 69 85 92 92 90 87 83 83 87 89 92 99 95 77 67 78 96 100 94 90 92 96 97 93 90 88 86 84 83 81 79 78 76
99 99 100 99 100 100 99 100 100 100 100 101 102 96 77 52 34 25 18 14 12 10 8 7 7 8 11 16 26 44 65 83 93 96 93 91 87 84 87 91 93 98 101 92 74 73 88 101 99 94 94 98 101 98 92 87 87 87 86 85 86 87 88
99 99 100 100 100 100 100 100 100 100 100 101 102 99 83 59 40 29 20 15 13 12 9 8 7 7 9 13 21 35 55 74 89 97 97 95 93 89 88 92 95 98 102 100 85 73 80 96 102 99 98 100 104 105 98 88 84 84 85 86 86 87 89
99 99 100 101 100 100 100 100 100 100 100 101 102 101 88 67 48 33 22 16 14 13 10 9 9 7 8 11 17 28 45 64 81 95 100 98 95 92 90 91 96 100 102 102 92 77 75 87 99 102 101 102 105 107 104 96 88 83 82 83 85 86 88
Wind_Speed
43 42 42 41 39 38 36 36 35 35 35 34 34 33 33 33 32 31 31 29 28 27 27 27 28 29 29 30 33 38 41 42 44 46 51 56 60 63 66 70 77 83 87 90 99 110 118 123 126 126 125 124 121 119 117 114 113 111 110 108 104 100 97
43 42 42 41 40 38 36 35 35 35 35 35 34 33 33 33 33 31 31 30 29 28 27 27 28 29 29 28 29 34 39 40 41 43 45 49 55 60 64 67 69 73 78 82 88 97 105 114 120 123 124 123 120 119 118 115 112 112 112 110 106 105 104
42 42 41 41 40 38 37 35 35 35 35 35 35 34 33 33 33 32 32 32 30 29 28 27 27 29 28 27 27 30 35 38 39 40 42 45 49 54 59 64 67 68 71 74 79 86 95 103 111 117 121 121 118 118 117 114 112 111 111 110 107 106 108
42 41 41 41 40 39 37 35 35 35 35 35 35 34 33 33 33 33 32 33 32 30 29 28 28 28 28 26 26 28 31 34 36 38 40 42 45 48 52 58 63 67 68 68 70 76 84 94 102 109 115 119 118 116 115 114 112 111 110 111 109 107 108
42 41 41 41 40 39 37 35 35 35 35 35 35 34 33 33 33 33 32 33 33 32 30 29 29 29 28 26 26 27 28 31 34 36 38 41 43 45 47 51 56 62 66 67 67 68 74 84 95 102 108 113 115 114 114 114 113 111 110 110 111 109 108
42 41 41 41 40 39 37 35 35 35 35 36 35 35 34 34 33 33 32 33 35 34 31 30 30 30 28 27 26 26 27 29 32 34 36 38 40 42 44 47 50 55 61 65 66 66 67 73 84 95 102 107 110 112 112 112 113 112 111 110 110 110 109
41 41 41 41 40 39 37 35 34 35 36 36 36 35 34 34 33 32 32 33 35 36 33 31 31 31 29 27 26 26 26 27 30 32 34 36 37 39 41 43 46 50 54 59 63 65 66 67 73 85 96 102 106 109 110 110 111 112 112 111 110 110 111
41 40 41 41 40 40 37 35 34 34 36 36 36 35 34 33 33 32 32 33 35 37 35 33 32 32 31 29 27 26 26 25 26 30 32 34 35 36 37 38 41 45 48 53 58 63 65 65 67 74 86 96 102 105 107 108 108 108 110 112 113 112 111
41 41 42 41 41 40 37 35 33 34 36 36 36 35 34 33 33 33 32 33 35 37 37 35 34 33 32 31 28 26 26 25 24 26 30 32 32 33 34 34 35 38 42 46 51 57 63 65 65 67 74 86 96 100 103 106 107 105 105 108 111 113 113
41 41 42 42 40 40 38 35 33 34 35 36 36 35 33 32 32 33 33 33 35 37 37 36 35 34 34 33 30 27 26 25 23 23 26 29 30 30 31 32 32 33 36 40 45 51 57 63 65 66 68 75 86 95 99 102 104 104 104 103 105 107 111
41 42 42 41 40 39 38 35 33 34 35 35 35 34 33 32 32 32 32 33 34 36 37 36 36 36 36 35 32 30 27 26 24 22 23 25 27 29 29 30 30 30 31 34 39 44 50 57 63 66 66 68 75 85 93 98 100 102 103 103 102 102 106
43 43 42 41 40 39 37 35 33 33 34 35 34 34 32 32 31 32 32 33 34 36 36 36 36 37 38 37 35 32 29 27 25 23 21 21 23 26 28 29 29 29 29 30 33 37 43 50 57 62 65 66 68 75 83 91 96 99 101 102 102 101 102
44 44 42 40 39 38 36 35 34 33 33 34 34 33 32 31 31 31 32 33 34 35 34 35 37 39 39 39 37 34 31 29 27 25 22 19 19 22 25 27 28 29 28 28 29 33 37 43 49 55 60 63 64 67 73 80 87 93 96 99 100 101 102
43 42 40 39 38 37 36 35 34 33 32 32 33 32 31 31 30 31 32 33 34 33 32 34 37 39 40 40 39 36 34 31 29 27 23 20 18 19 21 23 26 28 29 28 28 30 33 36 41 47 52 57 60 62 65 70 76 83 89 93 96 99 100
43 40 39 38 37 36 35 35 34 32 32 32 32 32 31 30 30 30 31 33 33 32 31 34 37 40 41 41 41 39 37 34 31 29 26 23 21 20 19 20 23 25 27 28 29 29 30 32 35 39 44 49 53 56 59 62 66 71 78 84 89 93 96
43 41 39 38 37 35 35 35 34 32 31 31 31 31 31 30 29 30 31 32 32 31 31 34 37 39 40 41 41 41 40 38 35 32 29 26 24 23 22 21 22 22 23 26 28 30 31 31 32 35 38 42 46 50 53 56 59 62 66 71 77 83 88
42 42 40 38 36 35 34 34 34 32 31 31 31 30 30 29 29 29 30 31 31 31 32 35 37 38 38 39 41 43 42 41 38 35 32 30 28 26 25 25 25 23 22 23 24 27 30 32 33 35 36 39 41 45 48 51 53 56 59 61 65 70 76
41 41 40 38 36 34 34 34 33 32 30 30 30 30 29 29 28 28 29 30 30 31 34 36 37 37 36 37 40 43 44 43 41 39 36 34 32 30 29 29 29 26 24 24 23 24 27 30 33 36 37 39 41 43 45 46 49 52 54 55 57 59 63
41 39 38 37 36 34 33 34 33 31 30 30 30 29 28 28 27 27 28 29 30 32 34 35 36 36 35 35 38 41 43 44 43 41 40 38 36 34 33 33 33 30 28 27 26 26 27 28 31 34 37 40 43 44 45 46 47 49 50 51 52 53 56
40 38 37 36 35 34 33 33 33 31 29 30 29 28 28 27 26 27 28 29 30 31 33 33 33 34 34 34 36 38 40 43 43 43 41 40 39 37 37 37 36 34 32 31 30 30 30 31 32 33 36 40 44 46 47 47 48 48 49 49 50 50 52
39 37 36 34 34 33 33 33 32 30 29 29 29 28 26 26 26 26 27 29 30 31 31 31 31 32 33 32 34 36 38 39 41 42 42 41 40 40 40 40 39 37 36 35 33 32 32 33 34 36 37 40 43 47 49 50 50 49 49 49 48 49 49
37 36 34 33 33 32 31 31 31 30 29 29 28 26 25 25 25 26 27 28 29 29 30 30 30 32 32 31 32 34 36 36 37 39 40 40 40 40 41 42 41 39 37 35 34 33 33 34 35 37 39 41 43 48 51 52 51 51 50 49 48 48 48
35 34 32 32 32 31 29 29 30 29 28 28 27 25 25 24 25 26 27 28 28 28 29 29 30 31 31 29 29 31 34 34 34 35 36 37 38 39 40 41 41 39 37 35 33 32 32 33 35 37 39 40 43 47 51 53 52 51 50 49 47 47 47
33 31 30 30 31 29 28 28 29 29 28 27 25 25 24 24 25 26 27 27 27 27 28 28 29 30 29 27 27 30 32 33 33 33 33 34 35 35 36 38 38 37 35 33 32 31 30 31 33 35 37 38 40 42 47 50 51 50 49 48 47 46 45
30 29 29 30 30 28 28 28 28 28 27 26 25 24 24 24 25 26 26 26 26 27 28 28 29 29 28 26 26 28 31 32 32 32 31 31 32 33 33 34 35 35 34 32 30 29 28 29 30 32 33 34 33 35 40 46 49 49 48 47 46 45 44
27 27 28 29 28 27 27 27 27 27 26 25 24 24 24 24 24 24 25 25 25 26 27 27 27 27 26 25 25 27 29 31 32 31 31 30 31 31 31 32 33 33 32 31 29 28 27 26 27 28 28 28 28 29 34 41 46 47 46 46 45 44 42
26 26 27 27 27 26 26 26 26 26 25 24 24 24 24 23 23 23 24 24 25 25 26 26 26 26 26 25 24 25 28 30 31 31 30 30 30 30 30 30 31 32 31 30 29 27 25 25 24 24 24 24 24 26 31 38 43 44 44 44 43 42 41
25 25 25 25 26 26 26 25 24 24 24 24 23 24 24 23 22 22 23 23 24 25 25 25 24 25 26 25 24 25 27 29 30 30 30 30 30 30 29 29 29 30 31 30 28 26 25 24 22 21 22 22 22 24 28 34 39 41 42 42 41 41 41
23 23 23 24 25 26 24 23 23 23 23 23 23 23 23 23 22 22 22 23 23 23 23 24 24 24 25 25 24 24 25 28 29 30 30 30 30 29 29 28 28 29 30 30 28 27 25 24 21 20 20 21 22 24 27 31 35 38 39 40 40 40 40
21 21 22 24 25 24 23 22 22 22 23 22 22 23 23 23 22 22 22 22 22 22 22 23 23 23 23 23 23 23 25 27 28 29 30 30 30 30 29 28 27 28 30 30 29 27 26 24 21 19 19 19 21 24 26 29 32 35 38 39 39 40 40
20 20 22 24 24 23 22 21 21 22 22 21 21 22 23 23 22 22 22 21 21 21 21 21 21 21 22 22 23 24 25 26 27 29 29 30 30 30 29 28 27 28 29 30 30 28 27 25 23 20 18 18 20 22 24 27 30 32 35 37 38 39 40
19 20 21 23 23 22 22 21 21 21 21 20 20 21 22 22 22 22 22 21 20 19 19 20 20 20 21 22 23 24 25 25 26 27 29 29 30 30 29 29 28 28 29 30 30 30 28 27 24 22 19 18 19 20 22 24 26 29 32 34 36 37 38
19 20 21 21 21 22 21 21 21 21 20 19 20 21 21 22 23 23 22 20 19 18 18 19 19 19 20 21 22 24 25 25 26 27 28 29 29 29 29 29 28 28 29 30 31 31 30 28 26 24 21 20 19 20 21 22 23 26 28 30 32 34 35
20 20 19 20 20 21 21 21 21 21 20 19 19 20 21 22 23 23 22 20 19 18 18 18 18 18 18 19 20 23 25 26 27 27 28 28 29 29 29 29 28 29 29 30 31 32 31 30 28 26 23 21 20 21 21 21 21 23 25 27 29 31 32
19 18 18 19 20 20 21 21 21 21 20 19 18 19 21 22 22 22 22 21 20 18 18 17 17 17 17 17 19 21 24 26 27 28 28 28 28 28 28 28 28 29 29 30 32 33 33 31 30 27 25 23 22 22 22 22 21 21 23 24 26 28 29
19 18 18 18 19 20 21 22 21 21 20 18 18 19 20 21 22 22 22 21 20 19 18 17 16 16 15 16 17 19 22 25 27 29 29 29 29 28 28 28 28 28 29 31 32 33 34 33 31 29 27 26 25 24 23 22 22 21 22 22 24 25 27
Wind_Direction
301 303 303 299 295 294 295 295 293 291 291 291 291 291 291 291 290 288 287 287 285 284 283 283 283 284 283 277 266 260 258 257 256 254 251 248 245 243 241 240 239 237 235 235 235 237 239 240 240 239 239 239 239 239 239 239 238 237 237 236 232 228 226
299 301 302 299 295 293 294 294 292 289 289 289 289 289 289 289 288 286 285 284 283 281 281 281 280 282 283 281 273 263 259 258 258 256 254 250 247 245 243 242 240 238 236 234 234 235 236 238 239 239 239 239 239 239 239 239 238 237 237 237 234 231 230
297 299 300 300 295 292 292 292 290 288 287 286 287 287 287 287 286 284 282 281 280 278 278 279 278 279 281 284 279 269 261 259 259 258 255 253 250 247 245 244 242 241 238 235 234 233 233 234 237 238 239 239 239 239 239 238 238 237 237 236 235 232 231
295 297 299 299 296 292 290 291 289 287 285 284 285 286 286 285 284 282 280 279 277 276 275 276 276 277 278 281 282 276 266 260 258 257 255 254 253 250 248 246 244 242 241 238 235 233 232 232 233 235 238 239 239 238 238 238 237 237 236 236 235 232 230
293 295 297 298 296 292 289 289 288 286 284 283 283 284 284 284 283 281 278 276 275 273 272 272 273 274 276 277 280 280 273 264 258 256 255 254 253 253 251 249 246 244 242 240 237 235 232 231 230 232 234 237 238 238 237 237 237 236 235 235 234 233 230
291 294 295 296 295 292 288 286 286 284 283 281 281 281 282 282 282 281 277 273 272 271 269 267 269 271 273 274 277 279 278 270 261 257 255 253 253 254 253 252 250 246 243 241 238 237 234 232 230 229 231 234 236 237 237 237 236 236 235 234 233 233 231
289 292 294 294 293 292 287 285 284 283 281 280 279 279 280 281 282 281 277 271 269 268 266 263 264 266 268 270 272 276 278 275 266 258 255 254 253 253 254 254 252 250 246 242 239 236 235 233 231 229 228 230 233 235 236 236 236 235 235 235 234 233 232
285 290 292 291 291 290 287 283 282 281 279 278 277 277 279 280 282 280 277 271 266 265 264 261 260 261 264 266 268 271 275 276 271 262 256 254 253 253 254 254 254 252 249 245 240 236 234 233 232 230 228 228 230 233 235 236 236 235 234 234 234 233 233
282 287 290 289 288 289 286 282 279 278 277 276 276 277 278 279 280 279 276 271 266 263 261 259 257 257 259 261 263 266 270 274 273 267 259 254 252 252 253 254 255 254 251 247 243 238 233 231 231 231 230 228 228 230 232 234 236 236 235 234 233 233 234
280 284 287 286 285 287 285 280 276 275 275 275 276 276 277 278 279 278 276 271 267 264 261 257 254 254 255 257 259 261 264 268 271 270 265 258 253 251 252 253 254 254 252 248 244 240 234 230 229 230 230 229 228 229 230 232 234 235 236 235 234 233 233
278 282 285 284 283 284 284 278 273 273 274 274 275 275 275 276 277 277 276 272 268 265 262 257 252 250 251 253 255 256 259 263 265 267 268 264 258 252 251 251 252 253 252 249 245 240 235 231 229 229 229 229 229 229 229 230 232 234 235 236 235 234 233
278 281 283 282 280 282 283 277 272 272 272 273 274 274 274 275 275 276 275 273 269 267 265 259 252 248 248 250 251 252 255 258 260 262 265 267 264 257 252 250 250 251 250 249 246 241 236 232 230 229 229 229 230 230 230 230 231 232 233 234 235 235 234
279 281 281 279 277 280 281 276 270 270 271 272 273 273 273 272 273 274 274 273 271 269 266 260 253 248 246 247 248 249 250 253 255 257 258 262 265 263 257 253 250 249 248 247 245 242 238 234 231 230 230 230 231 231 231 231 232 232 233 233 234 235 234
279 280 279 277 275 278 279 274 269 268 270 271 272 272 271 270 271 273 274 274 272 270 267 260 254 249 245 244 245 246 247 249 251 253 253 254 259 262 262 258 254 250 248 246 244 242 240 237 234 232 231 231 231 232 233 233 233 233 233 233 234 234 235
278 278 278 276 273 276 277 273 269 268 269 269 270 270 269 269 269 271 273 273 273 272 267 260 255 250 246 243 243 244 245 246 247 249 250 250 252 255 257 259 256 253 250 248 245 243 241 239 237 235 233 232 232 233 234 234 234 234 234 234 235 235 236
278 277 277 275 272 274 276 273 268 267 267 268 268 268 268 267 268 270 271 273 274 273 267 261 257 252 248 244 242 242 244 244 245 246 247 247 248 250 251 253 254 253 252 250 248 247 245 241 239 237 236 234 234 233 234 235 235 235 235 235 235 236 236
280 278 275 273 270 272 274 272 268 266 266 266 267 267 267 266 266 268 270 272 273 271 267 264 260 256 251 245 241 240 241 243 243 244 245 245 247 249 250 253 253 252 252 250 248 248 247 246 243 241 238 237 236 235 235 235 236 236 235 235 236 236 236
281 278 274 271 269 270 272 270 266 264 264 265 266 266 265 265 265 267 269 271 271 270 268 267 264 261 257 249 243 239 240 241 242 242 244 245 246 248 251 254 254 253 253 252 250 248 247 247 247 245 243 241 239 237 236 236 236 236 235 235 235 236 236
279 277 273 270 269 269 270 267 264 262 263 264 265 265 264 263 264 266 269 270 270 269 269 269 268 266 261 254 247 242 240 240 241 242 243 245 246 248 251 254 255 255 255 255 253 250 247 247 247 246 244 243 241 240 238 237 237 236 235 233 233 234 235
277 275 271 269 267 267 268 266 262 260 261 263 264 264 263 262 263 265 267 268 268 269 270 271 271 268 263 257 251 247 243 241 241 241 242 245 247 249 252 254 255 256 256 256 254 252 250 249 250 249 246 243 241 239 239 237 237 237 236 233 232 232 234
277 274 269 267 266 265 266 265 261 259 259 261 262 263 262 261 261 263 265 267 268 270 272 273 270 267 263 257 252 249 247 245 243 242 242 244 246 249 252 254 256 256 256 256 255 254 253 253 254 254 252 247 241 237 236 235 235 235 236 234 233 232 234
277 273 268 266 264 263 265 264 260 258 258 260 261 262 261 260 260 261 264 266 269 271 273 272 269 266 263 258 252 249 248 247 245 244 243 244 245 248 251 254 255 255 255 255 254 253 253 256 258 258 256 252 245 238 234 232 232 233 234 235 234 233 234
276 272 267 264 262 261 262 262 259 257 257 258 260 261 260 258 258 260 263 266 269 272 273 271 269 267 264 259 252 248 247 248 247 245 243 243 244 245 248 251 253 253 252 251 251 251 254 259 261 261 259 256 249 241 234 231 230 230 231 233 233 234 234
274 270 266 262 260 259 259 258 256 255 256 258 259 260 258 257 257 259 262 266 269 272 273 272 269 268 266 260 252 246 246 247 247 245 243 242 242 243 245 247 249 250 249 248 246 249 255 259 261 261 262 260 254 245 236 229 227 228 229 230 231 232 233
273 269 264 260 259 258 256 255 253 253 255 257 258 258 257 255 255 258 261 266 270 271 272 271 269 269 268 261 251 245 244 245 246 245 243 242 242 242 243 244 245 246 246 244 243 247 255 259 261 261 263 262 258 247 235 227 224 225 227 228 229 230 231
274 268 263 259 257 257 255 252 251 252 254 256 256 256 255 253 254 257 262 266 269 271 272 272 271 270 268 261 251 244 242 243 244 243 242 241 241 241 241 242 243 243 243 241 242 248 255 259 262 262 262 261 256 244 231 223 221 222 225 227 228 229 229
272 266 261 258 256 255 253 251 250 251 253 255 256 256 254 253 253 256 261 265 267 270 272 273 271 270 267 261 252 245 241 241 241 241 240 240 240 241 242 242 241 240 238 238 241 247 253 259 263 264 261 258 251 240 229 222 220 221 224 226 228 228 229
267 262 258 256 255 254 252 250 248 250 252 253 254 255 255 254 254 255 259 263 266 269 273 273 270 267 265 262 255 246 242 240 240 239 239 239 240 241 242 242 241 238 235 235 239 245 250 256 260 262 261 257 250 241 231 224 222 223 225 226 228 228 229
263 259 255 253 253 253 252 249 247 248 250 251 252 254 256 256 254 254 257 260 264 269 272 271 267 264 263 262 257 248 242 240 239 239 239 239 240 241 242 242 241 238 234 233 236 241 246 252 255 257 258 256 251 244 236 229 227 227 228 228 228 229 230
258 255 252 251 251 252 252 248 245 246 248 249 250 252 254 255 254 253 255 258 262 267 270 269 268 266 264 263 257 250 243 239 238 239 239 239 240 240 241 241 241 238 235 232 233 237 243 248 251 252 253 253 250 246 240 235 232 232 232 231 231 230 231
255 252 250 250 251 252 251 246 244 245 246 247 249 251 251 252 252 252 254 256 260 266 270 271 270 268 265 262 258 251 245 240 238 238 239 239 239 239 240 240 240 239 236 233 232 234 239 244 248 249 250 251 250 247 243 239 236 235 234 234 233 232 232
252 248 249 250 251 251 249 245 243 244 245 245 246 248 250 251 251 251 252 254 259 266 270 270 268 265 262 260 258 254 249 244 241 240 240 240 240 239 240 240 240 240 238 235 232 232 236 240 243 246 247 248 249 249 246 242 238 235 234 233 233 233 233
250 247 247 249 250 250 248 245 243 243 244 244 244 246 249 250 249 250 250 253 258 262 265 267 267 264 262 260 257 254 250 247 244 243 242 242 242 241 241 241 240 240 240 237 233 231 233 236 239 241 243 245 247 249 247 244 240 237 234 232 231 231 232
248 246 247 249 251 251 250 246 242 243 244 243 241 243 246 247 249 250 250 251 254 258 262 265 266 264 261 259 256 252 249 247 245 244 244 245 245 245 244 243 241 240 239 238 235 232 232 234 236 238 239 241 244 247 247 245 242 238 235 233 230 229 230
245 245 246 248 251 252 250 246 242 242 243 242 240 241 243 245 247 248 249 250 252 256 260 264 266 265 261 259 256 252 249 246 245 245 245 246 247 248 248 246 243 240 238 237 235 232 231 232 234 235 236 238 241 244 246 246 244 240 238 235 233 232 231
245 244 245 247 250 251 250 245 241 241 242 242 240 240 241 242 244 246 246 247 249 253 257 261 265 266 263 259 256 253 250 248 246 246 246 247 249 250 251 250 246 242 238 236 235 232 231 231 232 233 233 234 237 240 243 245 245 243 240 237 235 235 234